FW0827 Weather Reports


Display with metric or nautical units.
time (UTC)temp
F
wind
direction
speed
MPH
gust
MPH
rain 1hr
in
rain 24hr
in
rain mn
in
humidity
%
barometer
mb
20260509053206 53 348 0.0 0.0 0.00 0.00 0.00 85 1012.3
20260509053057 53 348 0.0 0.0 0.00 0.00 0.00 85 1029.0
20260509052555 53 348 0.0 0.0 0.00 0.00 0.00 84 1029.1
20260509052204 53 348 0.0 0.0 0.00 0.00 0.00 84 1012.5
20260509052053 53 348 0.0 0.0 0.00 0.00 0.00 84 1029.2
20260509051704 53 348 0.0 0.0 0.00 0.00 0.00 83 1012.6
20260509051550 53 348 0.0 0.0 0.00 0.00 0.00 83 1029.3
20260509051203 53 348 0.0 0.0 0.00 0.00 0.00 84 1012.4
20260509051047 53 348 0.0 0.0 0.00 0.00 0.00 84 1029.1
20260509050703 53 348 0.0 0.0 0.00 0.00 0.00 83 1012.4
20260509050544 53 348 0.0 0.0 0.00 0.00 0.00 83 1029.0
20260509050206 54 348 0.0 0.0 0.00 0.00 0.00 83 1012.7
20260509050040 54 348 0.0 0.0 0.00 0.00 0.00 83 1029.2
20260509045703 54 348 0.0 0.0 0.00 0.00 0.00 82 1012.4
20260509045538 54 348 0.0 0.0 0.00 0.00 0.00 82 1029.1
20260509045203 54 348 0.0 0.0 0.00 0.00 0.00 83 1012.6
20260509045035 54 348 0.0 0.0 0.00 0.00 0.00 83 1029.3
20260509044704 54 348 0.0 0.0 0.00 0.00 0.00 83 1012.6
20260509044532 54 348 0.0 0.0 0.00 0.00 0.00 83 1029.1
20260509044205 54 348 0.0 0.0 0.00 0.00 0.00 83 1012.7
20260509044030 54 348 0.0 0.0 0.00 0.00 0.00 83 1029.3
20260509043704 54 348 0.0 0.0 0.00 0.00 0.00 82 1012.7
20260509043526 54 348 0.0 0.0 0.00 0.00 0.00 82 1029.3
20260509043206 54 348 0.0 0.0 0.00 0.00 0.00 80 1012.6
20260509043016 54 348 0.0 0.0 0.00 0.00 0.00 79 1029.5
20260509042703 54 348 0.0 0.0 0.00 0.00 0.00 81 1012.7
20260509042512 54 348 0.0 0.0 0.00 0.00 0.00 81 1029.4
20260509042204 54 348 0.0 0.0 0.00 0.00 0.00 81 1012.5
20260509042009 55 348 0.0 0.0 0.00 0.00 0.00 81 1029.2
20260509041704 55 348 0.0 0.0 0.00 0.00 0.00 80 1012.5
20260509041506 55 348 0.0 0.0 0.00 0.00 0.00 80 1029.2
20260509041203 54 348 0.0 0.0 0.00 0.00 0.00 79 1012.5
20260509041003 54 348 0.0 0.0 0.00 0.00 0.00 79 1029.2
20260509040501 54 348 0.0 0.0 0.00 0.00 0.00 82 1029.1
20260509040203 54 348 0.0 0.0 0.00 0.00 0.00 81 1012.3
20260509035957 54 348 0.0 0.0 0.00 0.00 0.00 81 1029.0
20260509035454 54 348 0.0 0.0 0.00 0.00 0.00 81 1029.1
20260509035203 54 348 0.0 0.0 0.00 0.23 0.00 80 1012.5
20260509034950 54 349 0.0 0.0 0.00 0.00 0.00 80 1029.2
20260509034703 55 349 0.0 0.0 0.00 0.23 0.00 78 1012.4
20260509034449 55 153 0.0 0.0 0.00 0.00 0.00 77 1029.1
20260509034204 54 153 0.0 0.0 0.00 0.23 0.00 76 1012.6
20260509033945 54 153 0.0 0.0 0.00 0.00 0.00 76 1029.3
20260509033442 54 153 0.0 0.0 0.00 0.00 0.00 77 1029.3
20260509033204 54 153 0.0 0.0 0.00 0.23 0.00 76 1012.7
20260509032939 54 153 0.0 0.0 0.00 0.00 0.00 76 1029.5
20260509032705 54 153 0.0 0.0 0.00 0.23 0.00 77 1012.7
20260509032437 54 153 0.0 0.0 0.00 0.00 0.00 77 1029.3
20260509032204 54 153 0.0 0.0 0.00 0.23 0.00 77 1012.8
20260509031934 54 153 0.0 0.0 0.00 0.00 0.00 78 1029.2
20260509031703 54 153 0.0 0.0 0.00 0.23 0.00 77 1012.9
20260509031431 54 153 0.0 0.0 0.00 0.00 0.00 77 1029.5
20260509030929 55 153 0.0 0.0 0.00 0.00 0.00 77 1029.7
20260509030704 55 153 0.0 0.0 0.00 0.23 0.00 77 1012.9
20260509030427 55 153 0.0 0.0 0.00 0.00 0.00 77 1029.4
20260509030204 55 153 0.0 0.0 0.00 0.23 0.00 77 1013.0
20260509025924 55 153 0.0 0.0 0.00 0.00 0.00 77 1029.7
20260509025704 55 153 0.0 0.0 0.00 0.23 0.00 76 1012.9
20260509025419 55 153 0.0 0.0 0.00 0.00 0.00 76 1029.9
20260509025203 55 153 0.0 0.0 0.00 0.23 0.00 75 1012.8
20260509024914 55 153 0.0 0.0 0.00 0.00 0.00 75 1029.6
20260509024703 55 153 0.0 0.0 0.00 0.23 0.00 74 1012.8
20260509024411 55 153 0.0 0.0 0.00 0.00 0.00 74 1029.7
20260509024203 55 153 0.0 0.0 0.00 0.23 0.00 73 1013.0
20260509023908 55 153 0.0 0.0 0.00 0.00 0.00 72 1029.8
20260509023704 55 153 0.0 0.0 0.00 0.23 0.00 72 1012.8
20260509023405 55 153 0.0 0.0 0.00 0.00 0.00 73 1029.6
20260509023203 55 153 0.0 0.0 0.00 0.23 0.00 73 1012.6
20260509022901 55 153 0.0 0.0 0.00 0.00 0.00 74 1029.3
20260509022703 55 153 0.0 0.0 0.00 0.23 0.00 74 1012.6
20260509022359 55 153 0.0 0.0 0.00 0.00 0.00 74 1029.5
20260509022204 55 153 0.0 0.0 0.00 0.23 0.00 73 1012.7
20260509021856 56 153 0.0 0.0 0.00 0.00 0.00 72 1029.3
20260509021353 56 154 0.0 0.0 0.00 0.00 0.00 69 1029.4
20260509021204 55 154 0.0 0.0 0.00 0.23 0.00 69 1012.7
20260509020850 56 154 0.0 0.0 0.00 0.00 0.00 70 1029.7
20260509020703 55 154 0.0 0.0 0.00 0.23 0.00 70 1012.9
20260509020349 56 154 0.0 0.0 0.00 0.00 0.00 70 1029.4
20260509020203 56 154 0.0 0.0 0.00 0.23 0.00 71 1012.9
20260509015845 56 153 0.0 0.0 0.00 0.00 0.00 71 1029.4
20260509015703 56 153 0.0 0.0 0.00 0.23 0.00 70 1012.7
20260509015344 56 154 0.0 0.0 0.00 0.00 0.00 69 1029.5
20260509015203 56 154 0.0 0.0 0.00 0.23 0.00 69 1012.8
20260509014840 56 154 0.0 0.0 0.00 0.00 0.00 70 1029.3
20260509014703 56 154 0.0 0.0 0.00 0.23 0.00 70 1012.7
20260509014337 56 154 0.0 0.0 0.00 0.00 0.00 69 1029.4
20260509013834 56 154 0.0 0.0 0.00 0.00 0.00 68 1029.4
20260509013704 56 154 0.0 0.0 0.00 0.23 0.00 68 1012.5
20260509013330 57 154 0.0 0.0 0.00 0.00 0.00 67 1029.1
20260509013204 57 154 0.0 0.0 0.00 0.23 0.00 67 1012.6
20260509012821 57 154 0.0 0.0 0.00 0.00 0.00 68 1029.1
20260509012704 57 154 0.0 0.0 0.00 0.23 0.00 67 1012.2
20260509012317 57 154 0.0 0.0 0.00 0.00 0.00 67 1029.0
20260509012203 57 154 0.0 0.0 0.00 0.23 0.00 66 1012.0
20260509011815 58 154 0.0 0.0 0.00 0.00 0.00 65 1028.9
20260509011705 58 154 0.0 0.0 0.00 0.23 0.00 62 1012.1
20260509011312 58 154 0.0 0.0 0.00 0.00 0.00 60 1028.8
20260509011204 58 154 0.0 0.0 0.00 0.23 0.00 61 1012.1
20260509010809 58 154 0.0 0.0 0.00 0.00 0.00 60 1029.0
20260509010703 58 154 0.0 0.0 0.00 0.23 0.00 60 1012.3
20260509010306 58 154 0.0 0.0 0.00 0.00 0.00 60 1028.7
20260509010203 58 154 0.0 0.0 0.00 0.23 0.00 60 1012.2
20260509005758 58 154 0.0 0.0 0.00 0.00 0.00 59 1028.7
20260509005704 58 154 0.0 0.0 0.00 0.23 0.00 59 1011.9
20260509005256 58 154 0.0 0.0 0.00 0.00 0.00 58 1028.5
20260509005204 58 154 0.0 0.0 0.00 0.23 0.00 58 1011.8
20260509004755 58 154 0.0 0.0 0.00 0.00 0.00 58 1028.8
20260509004704 58 153 0.0 0.0 0.00 0.23 0.00 59 1011.8
20260509004252 58 153 0.0 0.0 0.00 0.00 0.00 58 1028.6
20260509004203 58 153 0.0 0.0 0.00 0.23 0.00 58 1011.7
20260509003750 59 153 0.0 0.0 0.00 0.00 0.00 58 1028.3
20260509003704 58 154 0.0 0.0 0.00 0.23 0.00 58 1011.8
20260509003247 59 154 0.0 0.0 0.00 0.00 0.00 57 1028.4
20260509003203 58 153 0.0 0.0 0.00 0.23 0.00 56 1011.7
20260509002744 58 153 0.0 0.0 0.00 0.00 0.00 56 1028.3
20260509002704 58 153 0.0 0.0 0.00 0.23 0.00 56 1011.5
20260509002242 59 153 0.0 0.0 0.00 0.00 0.00 56 1028.2
20260509002204 59 153 0.0 0.0 0.00 0.23 0.00 55 1011.6
20260509001740 59 153 0.0 0.0 0.00 0.00 0.00 55 1028.2
20260509001704 59 153 0.0 0.0 0.00 0.23 0.00 55 1011.4
20260509001235 59 134 0.0 0.0 0.00 0.00 0.00 55 1028.2
20260509001203 59 283 0.0 3.0 0.00 0.23 0.00 55 1011.4
20260509000733 60 286 0.0 3.0 0.00 0.00 0.00 54 1027.9
20260509000703 60 286 0.0 3.0 0.00 0.23 0.00 54 1011.3
20260509000230 60 267 0.0 0.0 0.00 0.00 0.00 54 1028.0
20260509000204 60 267 0.0 0.0 0.00 0.23 0.00 54 1011.3
20260508235727 60 257 0.0 0.0 0.00 0.00 0.00 54 1027.9
20260508235704 60 254 0.0 0.0 0.00 0.23 0.00 54 1011.2
20260508235224 60 281 0.0 0.0 0.00 0.00 0.00 54 1028.0
20260508235203 60 281 0.0 1.0 0.00 0.23 0.00 55 1011.3
20260508234721 60 281 0.0 2.0 0.00 0.00 0.00 53 1028.1
20260508234703 60 281 0.0 1.0 0.00 0.23 0.00 54 1011.3
20260508234217 61 257 0.0 0.0 0.00 0.00 0.00 54 1027.7
20260508233712 61 276 0.0 0.0 0.00 0.00 0.00 54 1027.8
20260508233704 61 237 0.0 0.0 0.00 0.23 0.00 53 1011.1
20260508233209 62 271 0.0 0.0 0.00 0.00 0.00 53 1027.7
20260508233203 62 271 0.0 1.0 0.00 0.23 0.00 53 1010.9
20260508232706 62 271 0.0 2.0 0.00 0.00 0.00 50 1027.7
20260508232703 62 271 0.0 1.0 0.00 0.23 0.00 49 1011.1
20260508232157 62 282 0.0 2.0 0.00 0.00 0.00 51 1027.6
20260508231703 62 254 0.0 3.0 0.00 0.23 0.00 50 1010.9
20260508231655 62 278 0.0 2.0 0.00 0.00 0.00 52 1027.7
20260508231152 62 284 0.0 2.0 0.00 0.00 0.00 51 1027.7
20260508230704 62 305 0.0 3.0 0.00 0.23 0.00 53 1010.8
20260508230648 62 306 0.0 0.0 0.00 0.00 0.00 55 1027.5
20260508230204 62 280 0.0 3.0 0.00 0.23 0.00 53 1010.8
20260508230144 62 278 0.0 3.0 0.00 0.00 0.00 51 1027.5
20260508225704 63 290 0.0 1.0 0.00 0.23 0.00 50 1010.7
20260508225642 63 290 0.0 2.0 0.00 0.00 0.00 53 1027.6
20260508225203 63 278 0.0 0.0 0.00 0.23 0.00 50 1010.8
20260508225138 63 294 0.0 0.0 0.00 0.00 0.00 53 1027.5
20260508224704 63 287 0.0 0.0 0.00 0.23 0.00 52 1010.8
20260508224636 63 287 0.0 0.0 0.00 0.00 0.00 51 1027.4
20260508224204 64 293 0.0 0.0 0.00 0.23 0.00 52 1010.6
20260508224134 64 286 0.0 0.0 0.00 0.00 0.00 53 1027.3
20260508223704 64 292 0.0 1.0 0.00 0.23 0.00 50 1010.7
20260508223632 64 292 0.0 0.0 0.00 0.00 0.00 50 1027.4
20260508223204 64 189 0.0 1.0 0.00 0.23 0.00 50 1010.8
20260508223129 64 279 0.0 2.0 0.00 0.00 0.00 49 1027.5
20260508222626 64 261 0.0 2.0 0.00 0.00 0.00 48 1027.4
20260508222203 64 277 0.0 0.0 0.00 0.23 0.00 50 1010.8
20260508222123 64 277 0.0 0.0 0.00 0.00 0.00 50 1027.5
20260508221704 64 270 0.0 5.0 0.00 0.23 0.00 50 1010.6
20260508221619 64 270 0.0 0.0 0.00 0.00 0.00 50 1027.3
20260508221204 64 297 1.0 5.0 0.00 0.23 0.00 50 1010.8
20260508221115 64 298 1.0 5.0 0.00 0.00 0.00 50 1027.4
20260508220612 64 285 0.0 3.0 0.00 0.00 0.00 49 1027.3
20260508220205 63 316 1.0 7.0 0.00 0.23 0.00 49 1010.8
20260508220108 63 319 0.0 7.0 0.00 0.00 0.00 49 1027.5
20260508215604 64 327 0.0 0.0 0.00 0.00 0.00 51 1027.2
20260508215204 64 317 0.0 1.0 0.00 0.23 0.00 49 1010.7
20260508215101 64 317 0.0 2.0 0.00 0.00 0.00 49 1027.3
20260508214704 64 293 1.0 5.0 0.00 0.23 0.00 50 1010.6
20260508214559 64 294 0.0 5.0 0.00 0.00 0.00 49 1027.3
20260508214204 63 284 0.0 0.0 0.00 0.23 0.00 50 1010.6
20260508214055 63 284 0.0 0.0 0.00 0.00 0.00 50 1027.3
20260508213552 63 291 0.0 3.0 0.00 0.00 0.00 49 1027.5
20260508213204 64 281 1.0 5.0 0.00 0.23 0.00 48 1010.6
20260508213048 64 279 0.0 5.0 0.00 0.00 0.00 48 1027.3
20260508212705 64 270 0.0 3.0 0.00 0.23 0.00 47 1010.8
20260508212545 64 268 0.0 2.0 0.00 0.00 0.00 47 1027.5
20260508212204 64 82 0.0 1.0 0.00 0.23 0.00 50 1010.8
20260508212041 64 82 0.0 0.0 0.00 0.00 0.00 50 1027.5
20260508211704 64 301 1.0 3.0 0.00 0.23 0.00 49 1010.8
20260508211537 64 305 0.0 3.0 0.00 0.00 0.00 49 1027.6
20260508211203 65 272 0.0 3.0 0.00 0.23 0.00 49 1010.6
20260508211033 65 320 0.0 0.0 0.00 0.00 0.00 47 1027.5
20260508210704 65 310 0.0 1.0 0.00 0.23 0.00 49 1010.6
20260508210529 65 263 0.0 2.0 0.00 0.00 0.00 47 1027.4
20260508210204 65 255 0.0 3.0 0.00 0.23 0.00 48 1010.9
20260508210027 65 243 0.0 3.0 0.00 0.00 0.00 46 1027.4
20260508205703 65 297 0.0 5.0 0.00 0.23 0.00 46 1010.7
20260508205524 65 300 0.0 5.0 0.00 0.00 0.00 46 1027.4
20260508205205 65 304 0.0 5.0 0.00 0.23 0.00 44 1010.6
20260508205020 66 221 0.0 2.0 0.00 0.00 0.00 45 1027.3
20260508204704 65 297 1.0 8.0 0.00 0.23 0.00 45 1010.7
20260508204517 65 221 1.0 3.0 0.00 0.00 0.00 45 1027.5
20260508204204 65 213 3.0 9.0 0.00 0.23 0.00 47 1010.8
20260508204013 65 240 2.0 5.0 0.00 0.00 0.00 46 1027.5
20260508203704 65 264 3.0 12.0 0.00 0.23 0.00 47 1010.9
20260508203509 65 280 5.0 10.0 0.00 0.00 0.00 45 1027.6
20260508203205 65 267 0.0 7.0 0.00 0.23 0.00 48 1010.8
20260508203005 65 316 0.0 2.0 0.00 0.00 0.00 47 1027.6
20260508202503 65 267 0.0 3.0 0.00 0.00 0.00 47 1027.7
20260508202205 66 310 1.0 3.0 0.00 0.23 0.00 46 1011.1
20260508201959 66 249 1.0 3.0 0.00 0.00 0.00 44 1027.7
20260508201704 65 283 0.0 5.0 0.00 0.23 0.00 47 1011.1
20260508201456 65 272 0.0 2.0 0.00 0.00 0.00 43 1027.8
20260508201204 64 292 1.0 8.0 0.00 0.23 0.00 47 1011.1
20260508200948 64 274 0.0 5.0 0.00 0.00 0.00 47 1028.1
20260508200703 64 281 1.0 13.0 0.00 0.23 0.00 49 1011.2
20260508200444 64 257 1.0 13.0 0.00 0.00 0.00 44 1027.8
20260508200204 64 272 2.0 12.0 0.00 0.23 0.00 47 1011.4
20260508195939 64 295 2.0 11.0 0.00 0.00 0.00 45 1027.9
20260508195437 64 271 0.0 2.0 0.00 0.00 0.00 48 1027.9
20260508195203 64 247 2.0 8.0 0.00 0.23 0.00 46 1011.2
20260508194933 64 247 4.0 7.0 0.00 0.00 0.00 45 1027.9
20260508194430 64 345 0.0 2.0 0.00 0.00 0.00 45 1028.1
20260508194203 64 313 1.0 5.0 0.00 0.23 0.00 47 1011.5
20260508193927 64 266 1.0 5.0 0.00 0.00 0.00 46 1027.8
20260508193703 64 257 0.0 8.0 0.00 0.23 0.00 46 1011.3
20260508193424 64 272 0.0 3.0 0.00 0.00 0.00 45 1027.8
20260508193203 64 224 1.0 8.0 0.00 0.23 0.00 45 1011.3
20260508192920 64 248 5.0 7.0 0.00 0.00 0.00 46 1028.0
20260508192703 63 323 2.0 16.0 0.00 0.23 0.00 48 1011.3
20260508192417 63 279 0.0 16.0 0.00 0.00 0.00 46 1028.2
20260508192204 64 245 3.0 8.0 0.00 0.23 0.00 46 1011.5
20260508191914 64 326 1.0 5.0 0.00 0.00 0.00 48 1028.4
20260508191703 64 238 1.0 13.0 0.00 0.23 0.00 48 1011.5
20260508191412 65 325 4.0 10.0 0.00 0.00 0.00 47 1028.4
20260508191203 64 270 0.0 3.0 0.00 0.23 0.00 47 1011.4
20260508190908 64 254 0.0 3.0 0.00 0.00 0.00 47 1028.1
20260508190703 64 247 0.0 8.0 0.00 0.23 0.00 46 1011.5
20260508190405 64 275 0.0 8.0 0.00 0.00 0.00 47 1028.2
20260508190203 64 284 0.0 7.0 0.00 0.23 0.00 47 1011.6
20260508185901 64 269 0.0 2.0 0.00 0.00 0.00 48 1028.2
20260508185704 64 231 1.0 7.0 0.00 0.23 0.00 44 1011.4
20260508185359 64 268 0.0 2.0 0.00 0.00 0.00 47 1028.2
20260508185202 63 269 0.0 9.0 0.00 0.23 0.00 45 1011.5
20260508184856 63 259 0.0 5.0 0.00 0.00 0.00 44 1028.3
20260508184703 62 200 3.0 9.0 0.00 0.23 0.00 45 1011.6
20260508184353 63 226 5.0 8.0 0.00 0.00 0.00 46 1028.1
20260508184204 63 231 1.0 9.0 0.00 0.23 0.00 45 1011.7
20260508183849 63 264 0.0 5.0 0.00 0.00 0.00 47 1028.1
20260508183703 64 246 1.0 8.0 0.00 0.23 0.00 45 1011.6
20260508183346 64 139 0.0 7.0 0.00 0.00 0.00 45 1028.2
20260508183204 65 262 0.0 8.0 0.00 0.23 0.00 45 1011.7
20260508182842 65 265 0.0 0.0 0.00 0.00 0.00 46 1028.3
20260508182704 65 297 0.0 5.0 0.00 0.23 0.00 49 1011.7
20260508182339 64 251 0.0 0.0 0.00 0.00 0.00 53 1028.4
20260508182205 64 248 2.0 5.0 0.00 0.23 0.00 46 1011.7
20260508181834 64 255 1.0 5.0 0.00 0.00 0.00 45 1028.2
20260508181703 64 264 0.0 7.0 0.00 0.23 0.00 51 1011.9
20260508181331 64 227 1.0 7.0 0.00 0.00 0.00 45 1028.4
20260508181203 64 220 2.0 13.0 0.00 0.23 0.00 47 1011.5
20260508180828 64 254 0.0 5.0 0.00 0.00 0.00 47 1028.6
20260508180704 65 342 4.0 16.0 0.00 0.23 0.00 44 1011.7
20260508180325 67 218 3.0 8.0 0.00 0.00 0.00 41 1028.4
20260508175821 67 249 1.0 11.0 0.00 0.00 0.00 44 1028.6
20260508175703 67 206 1.0 7.0 0.00 0.23 0.00 44 1011.8
20260508175318 66 223 3.0 5.0 0.00 0.00 0.00 42 1028.7
20260508175203 66 245 1.0 8.0 0.00 0.23 0.00 49 1012.0
20260508174816 65 117 1.0 2.0 0.00 0.00 0.00 47 1028.8
20260508174313 65 212 1.0 5.0 0.00 0.00 0.00 43 1028.9
20260508174203 66 264 3.0 9.0 0.00 0.23 0.00 43 1012.1
20260508173809 65 233 2.0 5.0 0.00 0.00 0.00 47 1028.8
20260508173703 65 230 4.0 9.0 0.00 0.23 0.00 48 1012.0
20260508173307 64 207 3.0 8.0 0.00 0.00 0.00 52 1028.8
20260508173206 63 278 0.0 12.0 0.00 0.23 0.00 51 1012.4
20260508172803 62 236 0.0 7.0 0.00 0.00 0.00 49 1029.1
20260508172300 62 288 0.0 3.0 0.00 0.00 0.00 47 1029.1
20260508172203 62 261 0.0 7.0 0.00 0.23 0.00 48 1012.3
20260508171756 63 259 1.0 7.0 0.00 0.00 0.00 49 1029.1
20260508171705 64 253 1.0 12.0 0.00 0.23 0.00 48 1012.4
20260508171253 65 267 0.0 11.0 0.00 0.00 0.00 47 1029.0
20260508171204 65 300 0.0 12.0 0.00 0.23 0.00 54 1012.3
20260508170749 64 246 2.0 8.0 0.00 0.00 0.00 54 1029.0
20260508170703 63 276 3.0 13.0 0.00 0.23 0.00 49 1012.4
20260508170247 64 304 0.0 13.0 0.00 0.00 0.00 49 1029.1
20260508170203 64 338 2.0 9.0 0.00 0.23 0.00 46 1012.5
20260508165738 65 258 6.0 10.0 0.00 0.00 0.00 46 1028.9
20260508165704 65 229 4.0 9.0 0.00 0.23 0.00 47 1012.5
20260508165236 64 269 0.0 2.0 0.00 0.00 0.00 48 1029.0
20260508165204 65 246 2.0 9.0 0.00 0.23 0.00 47 1012.4
20260508164732 65 276 3.0 5.0 0.00 0.00 0.00 45 1029.1
20260508164704 64 282 1.0 9.0 0.00 0.23 0.00 57 1012.3
20260508164228 64 201 4.0 10.0 0.00 0.00 0.00 46 1029.2
20260508164204 64 215 3.0 9.0 0.00 0.23 0.00 46 1012.5
20260508163726 64 195 6.0 8.0 0.00 0.00 0.00 48 1029.0
20260508163224 63 220 2.0 8.0 0.00 0.00 0.00 47 1029.1
20260508162719 63 227 2.0 3.0 0.00 0.00 0.00 47 1029.0
20260508162703 63 262 1.0 13.0 0.00 0.23 0.00 50 1012.4
20260508162216 63 255 0.0 2.0 0.00 0.00 0.00 51 1029.2
20260508162203 64 230 1.0 5.0 0.00 0.23 0.00 52 1012.4
20260508161713 63 271 0.0 5.0 0.00 0.00 0.00 53 1029.4
20260508161704 63 260 1.0 8.0 0.00 0.23 0.00 52 1012.7
20260508161211 62 240 3.0 8.0 0.00 0.00 0.00 49 1029.8
20260508161205 62 216 3.0 13.0 0.00 0.23 0.00 50 1012.9
20260508160709 62 222 2.0 11.0 0.00 0.00 0.00 49 1029.9
20260508160703 61 229 2.0 13.0 0.00 0.23 0.00 52 1013.2
20260508160207 62 258 5.0 13.0 0.00 0.00 0.00 55 1029.8
20260508160204 62 249 1.0 13.0 0.00 0.23 0.00 53 1013.1
20260508155703 62 169 3.0 7.0 0.00 0.00 0.00 48 1030.1
20260508155200 62 263 0.0 3.0 0.00 0.00 0.00 49 1030.1
20260508154704 62 122 1.0 8.0 0.00 0.23 0.00 49 1013.3
20260508154657 62 221 0.0 3.0 0.00 0.00 0.00 48 1029.9
20260508154203 61 211 3.0 13.0 0.00 0.23 0.00 52 1013.5
20260508154154 62 206 4.0 8.0 0.00 0.00 0.00 46 1030.1
20260508153703 63 221 3.0 7.0 0.00 0.23 0.00 46 1013.4
20260508153651 63 286 0.0 7.0 0.00 0.00 0.00 48 1030.2
20260508153203 61 286 0.0 5.0 0.00 0.23 0.00 54 1013.4
20260508153148 62 293 0.0 0.0 0.00 0.00 0.00 48 1030.1
20260508152703 61 245 1.0 9.0 0.00 0.23 0.00 51 1013.2
20260508152644 61 249 1.0 3.0 0.00 0.00 0.00 50 1029.9
20260508152204 61 234 1.0 8.0 0.00 0.23 0.00 52 1013.5
20260508152140 62 256 0.0 2.0 0.00 0.00 0.00 51 1030.2
20260508151703 61 233 2.0 8.0 0.00 0.23 0.00 49 1013.6
20260508151637 61 229 5.0 8.0 0.00 0.00 0.00 46 1030.3
20260508151133 61 233 1.0 3.0 0.00 0.00 0.00 47 1030.5
20260508150630 60 224 1.0 8.0 0.00 0.00 0.00 47 1030.4
20260508150204 60 251 1.0 7.0 0.00 0.23 0.00 46 1013.8
20260508150127 60 249 0.0 5.0 0.00 0.00 0.00 45 1030.5
20260508145623 60 278 1.0 5.0 0.00 0.00 0.00 52 1030.4
20260508145203 61 265 1.0 5.0 0.00 0.23 0.00 50 1013.8
20260508145119 61 266 1.0 3.0 0.00 0.00 0.00 50 1030.5
20260508144704 60 302 0.0 8.0 0.00 0.23 0.00 53 1013.9
20260508144617 60 325 0.0 5.0 0.00 0.00 0.00 54 1030.6
20260508144204 60 240 2.0 8.0 0.00 0.23 0.00 49 1013.8
20260508144115 60 254 0.0 7.0 0.00 0.00 0.00 49 1030.4
20260508143703 61 218 1.0 3.0 0.00 0.23 0.00 56 1013.8
20260508143612 61 203 2.0 3.0 0.00 0.00 0.00 55 1030.4
20260508143203 60 141 0.0 5.0 0.00 0.23 0.00 61 1014.0
20260508143108 59 142 0.0 0.0 0.00 0.00 0.00 62 1030.7
20260508142704 58 335 0.0 3.0 0.00 0.23 0.00 58 1013.8
20260508142559 58 335 0.0 2.0 0.00 0.00 0.00 58 1030.4
20260508142203 58 244 2.0 8.0 0.00 0.23 0.00 56 1013.9
20260508142056 58 242 0.0 8.0 0.00 0.00 0.00 57 1030.6
20260508141704 57 260 0.0 0.0 0.00 0.23 0.00 55 1014.0
20260508141553 57 267 0.0 0.0 0.00 0.00 0.00 55 1030.7
20260508141204 56 283 0.0 5.0 0.00 0.23 0.00 57 1014.1
20260508141050 56 289 0.0 0.0 0.00 0.00 0.00 58 1030.8
20260508140704 56 244 3.0 8.0 0.00 0.23 0.00 50 1014.1
20260508140547 56 244 3.0 5.0 0.00 0.00 0.00 50 1030.8
20260508140203 57 244 0.0 0.0 0.00 0.23 0.00 54 1014.2
20260508140044 57 254 0.0 0.0 0.00 0.00 0.00 54 1030.9
20260508135704 57 284 0.0 7.0 0.00 0.23 0.00 57 1014.3
20260508135539 57 284 0.0 0.0 0.00 0.00 0.00 56 1030.9
20260508135204 58 266 0.0 3.0 0.00 0.23 0.00 59 1014.2
20260508135036 58 263 0.0 2.0 0.00 0.00 0.00 59 1030.9
20260508134703 58 239 0.0 3.0 0.00 0.23 0.00 58 1014.1
20260508134532 59 235 0.0 3.0 0.00 0.00 0.00 58 1031.0
20260508134204 58 284 0.0 0.0 0.00 0.23 0.00 54 1014.3
20260508134030 59 278 0.0 0.0 0.00 0.00 0.00 53 1030.8
20260508133526 60 249 0.0 0.0 0.00 0.00 0.00 57 1030.8
20260508133204 58 308 0.0 1.0 0.00 0.23 0.00 60 1014.3
20260508133023 58 317 0.0 0.0 0.00 0.00 0.00 61 1030.9
20260508132704 58 320 0.0 1.0 0.00 0.23 0.00 59 1014.2
20260508132516 57 291 0.0 0.0 0.00 0.00 0.00 57 1030.8
20260508132204 57 262 0.0 1.0 0.00 0.23 0.00 61 1014.3
20260508132012 57 262 0.0 0.0 0.00 0.00 0.00 62 1031.0
20260508131507 55 292 0.0 0.0 0.00 0.00 0.00 60 1031.0
20260508131004 55 131 0.0 3.0 0.00 0.00 0.00 57 1031.1
20260508130704 56 263 0.0 3.0 0.00 0.23 0.00 60 1014.3
20260508130502 56 262 0.0 3.0 0.00 0.00 0.00 59 1031.1
20260508125957 56 278 0.0 0.0 0.00 0.00 0.00 61 1030.9
20260508125453 57 338 4.0 7.0 0.00 0.00 0.00 56 1030.9
20260508125204 56 298 0.0 1.0 0.00 0.23 0.00 61 1014.2
20260508124951 56 311 0.0 0.0 0.00 0.00 0.00 57 1030.9
20260508124704 56 309 0.0 1.0 0.00 0.23 0.00 59 1014.2
20260508124449 56 300 0.0 2.0 0.00 0.00 0.00 60 1030.8
20260508124204 56 298 0.0 1.0 0.00 0.23 0.00 62 1014.2
20260508123946 56 256 0.0 0.0 0.00 0.00 0.00 61 1031.0
20260508123704 56 245 0.0 1.0 0.00 0.23 0.00 58 1014.3
20260508123445 57 242 0.0 0.0 0.00 0.00 0.00 59 1030.9
20260508123205 57 250 0.0 0.0 0.00 0.23 0.00 63 1014.4
20260508122940 56 249 0.0 0.0 0.00 0.00 0.00 63 1030.9
20260508122704 55 316 0.0 0.0 0.00 0.23 0.00 65 1014.5
20260508122438 55 328 0.0 0.0 0.00 0.00 0.00 66 1031.1
20260508122205 55 315 0.0 1.0 0.00 0.23 0.00 68 1014.1
20260508121935 54 319 0.0 0.0 0.00 0.00 0.00 69 1030.9
20260508121704 54 319 0.0 1.0 0.00 0.23 0.00 70 1014.1
20260508121433 54 270 0.0 0.0 0.00 0.00 0.00 71 1030.8
20260508120930 53 269 0.0 0.0 0.00 0.00 0.00 72 1030.8
20260508120703 53 296 0.0 0.0 0.00 0.23 0.00 75 1013.9
20260508120428 51 266 0.0 0.0 0.00 0.00 0.00 76 1030.9
20260508120204 50 266 0.0 0.0 0.00 0.23 0.00 80 1014.2
20260508115925 50 264 0.0 0.0 0.00 0.00 0.00 79 1031.1
20260508115704 49 262 0.0 0.0 0.00 0.23 0.00 80 1014.3
20260508115424 49 237 0.0 0.0 0.00 0.00 0.00 80 1030.9
20260508115205 49 256 0.0 0.0 0.00 0.23 0.00 83 1014.2
20260508114919 48 270 0.0 0.0 0.00 0.00 0.00 83 1030.7
20260508114704 48 274 0.0 0.0 0.00 0.23 0.00 82 1014.2
20260508114417 48 262 0.0 0.0 0.00 0.00 0.00 82 1030.8
20260508113913 48 277 0.0 0.0 0.00 0.00 0.00 82 1030.7
20260508113704 48 300 0.0 0.0 0.00 0.23 0.00 83 1014.0
20260508113411 48 307 0.0 0.0 0.00 0.00 0.00 84 1030.5
20260508113205 48 315 0.0 1.0 0.00 0.23 0.00 82 1013.9
20260508112908 48 322 0.0 0.0 0.00 0.00 0.00 82 1030.6
20260508112704 49 243 0.0 1.0 0.00 0.23 0.00 82 1013.8
20260508112404 49 198 0.0 0.0 0.00 0.00 0.00 85 1030.7
20260508112204 48 197 0.0 0.0 0.00 0.23 0.00 89 1014.1
20260508111900 47 305 0.0 0.0 0.00 0.00 0.00 89 1030.6
20260508111705 46 320 0.0 0.0 0.00 0.23 0.00 91 1014.1
20260508111358 45 325 0.0 0.0 0.00 0.00 0.00 92 1030.6
20260508111204 45 325 0.0 0.0 0.00 0.23 0.00 93 1014.2
20260508110855 44 325 0.0 0.0 0.00 0.00 0.00 93 1030.6
20260508110705 44 309 0.0 0.0 0.00 0.23 0.00 94 1014.0
20260508110352 44 312 0.0 0.0 0.00 0.00 0.00 94 1030.7
20260508110203 44 257 0.0 0.0 0.00 0.23 0.00 95 1014.0
20260508105847 43 269 0.0 0.0 0.00 0.00 0.00 95 1030.7
20260508105703 43 302 0.0 0.0 0.00 0.23 0.00 96 1014.1
20260508105343 42 305 0.0 0.0 0.00 0.00 0.00 96 1030.4
20260508105203 42 305 0.0 0.0 0.00 0.23 0.00 96 1013.9
20260508104841 41 305 0.0 0.0 0.00 0.00 0.00 95 1030.5
20260508104702 41 305 0.0 0.0 0.00 0.23 0.00 95 1013.7
20260508104337 42 305 0.0 0.0 0.00 0.00 0.00 96 1030.4
20260508104203 42 305 0.0 0.0 0.00 0.23 0.00 96 1013.4
20260508103835 42 305 0.0 0.0 0.00 0.00 0.00 97 1030.2
20260508103703 42 305 0.0 0.0 0.00 0.23 0.00 97 1013.5
20260508103332 42 305 0.0 0.0 0.00 0.00 0.00 97 1030.0
20260508103203 42 305 0.0 0.0 0.00 0.23 0.00 98 1013.6
20260508102829 41 305 0.0 0.0 0.00 0.00 0.00 98 1030.2
20260508102703 41 305 0.0 0.0 0.00 0.23 0.00 98 1013.5
20260508102327 40 305 0.0 0.0 0.00 0.00 0.00 98 1030.1
20260508102203 40 305 0.0 0.0 0.00 0.23 0.00 98 1013.5
20260508101824 40 305 0.0 0.0 0.00 0.00 0.00 97 1030.0
20260508101703 40 305 0.0 0.0 0.00 0.23 0.00 97 1013.4
20260508101321 40 306 0.0 0.0 0.00 0.00 0.00 97 1030.1
20260508101203 40 306 0.0 0.0 0.00 0.23 0.00 97 1013.4
20260508100819 40 306 0.0 0.0 0.00 0.00 0.00 97 1029.9
20260508100318 40 306 0.0 0.0 0.00 0.00 0.00 97 1029.9
20260508100203 40 306 0.0 0.0 0.00 0.23 0.00 96 1013.2
20260508095812 40 306 0.0 0.0 0.00 0.00 0.00 96 1030.0
20260508095705 40 307 0.0 0.0 0.00 0.23 0.00 96 1013.2
20260508095311 40 306 0.0 0.0 0.00 0.00 0.00 96 1029.9
20260508095203 40 306 0.0 0.0 0.00 0.23 0.00 96 1013.3
20260508094807 40 306 0.0 0.0 0.00 0.00 0.00 96 1029.9
20260508094703 40 306 0.0 0.0 0.00 0.23 0.00 96 1013.1
20260508094304 40 306 0.0 0.0 0.00 0.00 0.00 95 1029.9
20260508094203 40 306 0.0 0.0 0.00 0.23 0.00 95 1013.2
20260508093801 40 306 0.0 0.0 0.00 0.00 0.00 95 1029.6
20260508093706 40 306 0.0 0.0 0.00 0.23 0.00 95 1013.2
20260508093259 40 306 0.0 0.0 0.00 0.00 0.00 94 1029.9
20260508093203 40 306 0.0 0.0 0.00 0.23 0.00 94 1013.2
20260508092756 41 306 0.0 0.0 0.00 0.00 0.00 94 1029.8
20260508092703 41 306 0.0 0.0 0.00 0.23 0.00 93 1013.5
20260508092254 41 306 0.0 0.0 0.00 0.00 0.00 93 1029.9
20260508092203 41 306 0.0 0.0 0.00 0.23 0.00 93 1013.1
20260508091752 41 306 0.0 0.0 0.00 0.00 0.00 93 1030.0
20260508091248 42 306 0.0 0.0 0.00 0.00 0.00 93 1029.8
20260508091203 42 306 0.0 0.0 0.00 0.23 0.00 93 1013.0
20260508090746 42 306 0.0 0.0 0.00 0.00 0.00 92 1029.7
20260508090703 42 306 0.0 0.0 0.00 0.23 0.00 92 1013.0
20260508090244 42 306 0.0 0.0 0.00 0.00 0.00 92 1029.7
20260508090203 43 306 0.0 0.0 0.00 0.23 0.00 92 1013.2
20260508085739 43 306 0.0 0.0 0.00 0.00 0.00 91 1029.6
20260508085237 43 306 0.0 0.0 0.00 0.00 0.00 91 1029.9
20260508085203 43 306 0.0 0.0 0.00 0.23 0.00 90 1013.0
20260508084733 44 306 0.0 0.0 0.00 0.00 0.00 90 1029.6
20260508084703 44 306 0.0 0.0 0.00 0.23 0.00 90 1012.9
20260508084230 44 316 0.0 0.0 0.00 0.00 0.00 90 1029.6
20260508084204 44 296 0.0 0.0 0.00 0.23 0.00 89 1012.9
20260508083728 44 294 0.0 0.0 0.00 0.00 0.00 89 1029.5
20260508083703 44 294 0.0 0.0 0.00 0.23 0.00 89 1012.7
20260508083225 44 294 0.0 0.0 0.00 0.00 0.00 88 1029.5
20260508083203 44 294 0.0 1.0 0.00 0.23 0.00 88 1012.8
20260508082719 44 306 0.0 0.0 0.00 0.00 0.00 88 1029.3
20260508082703 44 306 0.0 0.0 0.00 0.23 0.00 87 1012.6
20260508082218 45 312 0.0 0.0 0.00 0.00 0.00 87 1029.2
20260508082203 45 312 0.0 3.0 0.00 0.23 0.00 87 1012.9
20260508081715 45 319 0.0 0.0 0.00 0.00 0.00 87 1029.2
20260508081704 45 319 0.0 0.0 0.00 0.23 0.00 87 1012.6
20260508081211 45 319 0.0 0.0 0.00 0.00 0.00 86 1028.8
20260508081204 45 319 0.0 0.0 0.00 0.23 0.00 86 1012.3
20260508080708 45 319 0.0 0.0 0.00 0.00 0.00 86 1029.1
20260508080703 45 320 0.0 0.0 0.00 0.23 0.00 86 1012.5
20260508080207 46 320 0.0 0.0 0.00 0.00 0.00 85 1029.1
20260508080204 46 320 0.0 5.0 0.00 0.23 0.00 85 1012.4
20260508075703 46 315 0.0 2.0 0.00 0.00 0.00 85 1029.3
20260508075204 46 330 0.0 0.0 0.00 0.23 0.00 85 1012.3
20260508075200 46 330 0.0 0.0 0.00 0.00 0.00 85 1029.1
20260508074703 46 327 0.0 3.0 0.00 0.23 0.00 84 1012.4
20260508074657 46 330 0.0 0.0 0.00 0.00 0.00 84 1029.0
20260508074154 46 303 0.0 3.0 0.00 0.00 0.00 84 1028.9
20260508073703 46 315 0.0 3.0 0.00 0.23 0.00 84 1012.2
20260508073651 46 304 0.0 0.0 0.00 0.00 0.00 84 1028.7
20260508073203 47 304 0.0 7.0 0.00 0.23 0.00 83 1012.1
20260508073149 47 304 0.0 0.0 0.00 0.00 0.00 83 1028.7
20260508072703 47 340 1.0 7.0 0.00 0.23 0.00 82 1012.2
20260508072645 47 334 0.0 7.0 0.00 0.00 0.00 82 1028.7
20260508072203 47 314 1.0 5.0 0.00 0.23 0.00 81 1012.2
20260508072142 47 306 0.0 3.0 0.00 0.00 0.00 82 1028.7
20260508071706 47 307 0.0 3.0 0.00 0.23 0.00 81 1011.8
20260508071639 47 307 0.0 3.0 0.00 0.00 0.00 81 1028.5
20260508071138 48 297 0.0 3.0 0.00 0.00 0.00 81 1028.8
20260508070704 48 311 0.0 5.0 0.00 0.23 0.00 80 1012.0
20260508070635 48 311 0.0 3.0 0.00 0.00 0.00 80 1028.6
20260508070204 48 310 0.0 12.0 0.00 0.23 0.00 79 1011.8
20260508070133 48 309 0.0 0.0 0.00 0.00 0.00 79 1028.4
20260508065704 49 316 1.0 7.0 0.00 0.23 0.00 78 1011.9
20260508065630 49 325 0.0 3.0 0.00 0.00 0.00 79 1028.5
20260508065128 49 307 0.0 7.0 0.00 0.00 0.00 78 1028.5
20260508064703 49 334 1.0 7.0 0.00 0.24 0.00 78 1011.7
20260508064626 49 318 1.0 5.0 0.00 0.00 0.00 78 1028.4
20260508064203 49 321 0.0 13.0 0.00 0.24 0.00 76 1011.5
20260508064124 50 321 0.0 2.0 0.00 0.00 0.00 76 1028.2
20260508063703 50 300 4.0 12.0 0.00 0.24 0.00 75 1011.5
20260508063621 50 295 6.0 11.0 0.00 0.00 0.00 75 1028.3
20260508063205 50 298 2.0 12.0 0.00 0.27 0.00 74 1011.5
20260508063119 50 297 3.0 7.0 0.00 0.00 0.00 74 1028.2
20260508062704 51 290 2.0 14.0 0.00 0.28 0.00 73 1011.2
20260508062616 51 323 0.0 14.0 0.00 0.00 0.00 73 1027.9
20260508062204 51 332 2.0 14.0 0.00 0.30 0.00 73 1011.4
20260508062112 51 306 1.0 7.0 0.00 0.00 0.00 73 1028.1
20260508061704 51 324 0.0 9.0 0.00 0.30 0.00 73 1011.3
20260508061610 51 329 0.0 3.0 0.00 0.00 0.00 73 1028.1
20260508061205 51 353 2.0 9.0 0.00 0.30 0.00 72 1011.3
20260508061108 51 354 4.0 10.0 0.00 0.00 0.00 72 1027.9
20260508060704 51 356 4.0 13.0 0.00 0.30 0.00 72 1011.2
20260508060604 51 11 2.0 13.0 0.00 0.00 0.00 72 1027.9
20260508060204 52 317 3.0 24.0 0.00 0.30 0.00 71 1011.2
20260508055704 51 327 5.0 24.0 0.00 0.30 0.00 72 1011.0
20260508055556 51 345 2.0 19.0 0.00 0.00 0.00 73 1027.7
20260508055204 51 332 1.0 13.0 0.00 0.30 0.00 75 1011.0
20260508055053 51 327 0.0 3.0 0.00 0.00 0.00 75 1027.7
20260508054704 50 8 2.0 13.0 0.00 0.30 0.00 78 1011.0
20260508054549 50 9 3.0 13.0 0.00 0.00 0.00 79 1027.7
20260508054204 49 298 1.0 7.0 0.00 0.35 0.00 83 1010.8
20260508054047 49 291 0.0 0.0 0.00 0.00 0.00 83 1027.4
20260508053703 49 300 0.0 0.0 0.00 0.36 0.00 87 1010.6
20260508053543 49 300 0.0 0.0 0.00 0.00 0.00 87 1027.2